Погода в Липином Бору

Россия / Вологодская область     60°15′42″N   37°58′32″E
темп.,
°C
ветер,
м/с
пор.,
м/с
влажн.,
%
обл.,
%
осадки,
мм/ч
давл.,
гПа
погр.,
м
21 апреля, ср
ср2100:00+3вюв4106594 0.0 1020262
03:00+2в4973100 0.0 1018253
06:00+2всв41173100 0.0 1014366
09:00+2в61376100 0.3 1010702
12:00+2вюв61294100 1.1 1007772
15:00+1в51498100 4.8 1004624
18:00+2юв61297100 3.9 1002857
21:00+1ю51196100 4.9 1004666
22 апреля, чт
чт2200:00+1ю51197100 0.1 1005638
03:00+2ю51197100 0.4 1006562
06:00+2ююз41196100 0.2 1006543
09:00+4ю5109077 0.2 1007486
12:00+5ююз51192100 1.1 1008797
15:00+6ююз4989100 1.7 1009575
18:00+7ююз388752 0.3 1010344
21:00+4ююв389610 0.4 1011144
23 апреля, пт
пт2300:00+3юв39968 0.0 1011174
03:00+3юв4109641 0.0 1011205
06:00+4юв5129596 0.0 1010325
09:00+7ююв51190100 0.0 1010412
12:00+10ю61183100 0.1 1010872
15:00+11ююв51279100 0.6 10091079
18:00+8ююз41088100 1.0 1010587
21:00+4юз2497100 4.0 1012141
24 апреля, сб
сб2400:00+5ююв2496100 1.6 1012163
03:00+4всв1197100 2.5 101031
06:00+6юв3109597 0.3 1008542
09:00+8юв5128497 0.4 1006679
12:00+11юв61472100 0.3 10041346
15:00+9ю41080100 2.1 1002974
18:00+1з3597100 6.1 1004220
21:00+1з3798100 6.3 1005391
25 апреля, вс
вс2500:00+1з3698100 0.3 1004342
03:00+2зсз3798100 0.8 1003335
06:00+1зсз4999100 2.4 1003294
09:00+1зсз4999100 5.7 1002336
12:00+1з51197100 2.8 1003589
15:00+2з51297100 4.5 1003645
18:00+2з41196100 1.3 1004572
21:00+1з51198100 2.5 1004564